Simultaneous Nadir Overpasses (SNOs) Predictions

Prediction of SNOs between LANDSAT-8 and NPP Satellite Orbit:

Table of predicted SNOs for the next 14.0 days since TLE Epoch: 3/27/2015
Index Date (LANDSAT-8) Time (LANDSAT-8) Lat,Lon (LANDSAT-8) SZA (LANDSAT-8 ) Date (NPP) Time (NPP) Lat,Lon (NPP) SZA (NPP ) Distance(km) Time Diff (sec)
1 03/30/2015 02:50:28 -70.73, -45.52 112.93 03/30/2015 02:49:51 -70.74, -45.58 112.91 2.50 37
2 03/30/2015 03:39:56 70.58, 121.89 66.91 03/30/2015 03:40:34 70.59, 121.98 66.92 3.18 38
3 04/01/2015 18:17:18 71.19, -96.55 66.50 04/01/2015 18:16:08 71.23, -97.95 66.58 50.14 70
4 04/01/2015 19:06:55 -70.70, 70.31 114.01 04/01/2015 19:06:42 -70.71, 70.24 113.98 3.19 13
5 04/01/2015 19:56:23 70.54,-122.28 65.83 04/01/2015 19:57:25 70.56,-122.21 65.85 3.49 62
6 04/04/2015 10:33:51 70.76, 18.65 65.04 04/04/2015 10:32:49 70.74, 18.65 65.03 1.50 62
7 04/04/2015 11:23:21 -70.64,-173.89 115.09 04/04/2015 11:23:31 -70.64,-173.87 115.09 0.66 10
8 04/04/2015 12:12:57 70.04, -7.11 64.32 04/04/2015 12:14:06 70.07, -5.66 64.31 55.08 69
9 04/07/2015 02:50:17 70.73, 134.50 64.00 04/07/2015 02:49:40 70.73, 134.44 64.00 2.32 37
10 04/07/2015 03:39:47 -70.62, -58.03 116.13 04/07/2015 03:40:22 -70.63, -58.08 116.12 1.83 35
11 04/09/2015 18:17:07 -71.29, 83.61 116.46 04/09/2015 18:15:57 -71.34, 81.88 116.36 62.08 70
12 04/09/2015 19:06:43 70.69,-109.67 62.95 04/09/2015 19:06:30 70.68,-109.70 62.94 1.52 13
13 04/09/2015 19:56:13 -70.58, 57.79
